Location: *
(2.7500°S, 66.6833°W)
Time: 23:09:57
(UTC+00:00)

BREEZE-M DEB (TANK) - Pass Details

Date: 24 May 2024
Orbit: 321 x 14643 km, 49.5° (Epoch: 13 June)

Event Time Altitude Azimuth Distance (km) Brightness Sun altitude
Rises 23:12:27 0° 217° (SW) 10,673 9.7 -12.4°
Reaches altitude 10° 23:23:10 10° 215° (SW) 7,185 8.8 -14.9°
Maximum altitude 23:39:05 74° 132° (SE) 1,190 4.4 -18.6°
Enters shadow 23:42:53 13° 47° (NE) 1,889 5.5 -19.4°
